TimeEST,TemperatureF,Dew PointF,Humidity,Sea Level PressureIn,VisibilityMPH,Wind Direction,Wind SpeedMPH,Gust SpeedMPH,PrecipitationIn,Events,Conditions,WindDirDegrees,DateUTC
12:15 AM,41.0,41.0,100,30.27,10.0,Calm,Calm,-,N/A,,Clear,0,2012-11-10 05:15:00
12:35 AM,41.0,39.2,93,30.27,10.0,Calm,Calm,-,N/A,,Clear,0,2012-11-10 05:35:00
12:55 AM,39.2,39.2,100,30.27,10.0,Calm,Calm,-,N/A,,Clear,0,2012-11-10 05:55:00
1:15 AM,39.2,39.2,100,30.27,10.0,Calm,Calm,-,N/A,,Clear,0,2012-11-10 06:15:00
1:35 AM,41.0,39.2,93,30.28,10.0,Calm,Calm,-,N/A,,Clear,0,2012-11-10 06:35:00
1:55 AM,41.0,41.0,100,30.28,10.0,Calm,Calm,-,N/A,,Clear,0,2012-11-10 06:55:00
2:15 AM,39.2,39.2,100,30.28,10.0,Calm,Calm,-,N/A,,Clear,0,2012-11-10 07:15:00
2:35 AM,37.4,37.4,100,30.28,10.0,Calm,Calm,-,N/A,,Clear,0,2012-11-10 07:35:00
2:55 AM,37.4,37.4,100,30.28,10.0,Calm,Calm,-,N/A,,Clear,0,2012-11-10 07:55:00
3:15 AM,37.4,37.4,100,30.28,10.0,Calm,Calm,-,N/A,,Clear,0,2012-11-10 08:15:00
3:35 AM,37.4,37.4,100,30.28,7.0,Calm,Calm,-,N/A,,Clear,0,2012-11-10 08:35:00
3:55 AM,37.4,37.4,100,30.28,10.0,Calm,Calm,-,N/A,,Clear,0,2012-11-10 08:55:00
4:15 AM,37.4,37.4,100,30.28,10.0,Calm,Calm,-,N/A,,Clear,0,2012-11-10 09:15:00
4:35 AM,35.6,35.6,100,30.29,10.0,Calm,Calm,-,N/A,,Clear,0,2012-11-10 09:35:00
4:55 AM,35.6,35.6,100,30.29,7.0,Calm,Calm,-,N/A,,Clear,0,2012-11-10 09:55:00
5:15 AM,35.6,35.6,100,30.30,7.0,Calm,Calm,-,N/A,,Clear,0,2012-11-10 10:15:00
5:35 AM,35.6,35.6,100,30.30,10.0,Calm,Calm,-,N/A,,Clear,0,2012-11-10 10:35:00
5:55 AM,35.6,35.6,100,30.31,7.0,Calm,Calm,-,N/A,,Clear,0,2012-11-10 10:55:00
6:15 AM,35.6,35.6,100,30.31,7.0,Calm,Calm,-,N/A,,Clear,0,2012-11-10 11:15:00
6:35 AM,35.6,35.6,100,30.32,10.0,Calm,Calm,-,N/A,,Clear,0,2012-11-10 11:35:00
6:55 AM,35.6,35.6,100,30.33,10.0,Calm,Calm,-,N/A,,Clear,0,2012-11-10 11:55:00
7:15 AM,33.8,33.8,100,30.33,10.0,Calm,Calm,-,N/A,,Clear,0,2012-11-10 12:15:00
7:35 AM,35.6,35.6,100,30.33,10.0,Calm,Calm,-,N/A,,Clear,0,2012-11-10 12:35:00
7:55 AM,37.4,37.4,100,30.34,10.0,Calm,Calm,-,N/A,,Clear,0,2012-11-10 12:55:00
8:15 AM,41.0,39.2,93,30.35,10.0,Calm,Calm,-,N/A,,Clear,0,2012-11-10 13:15:00
8:35 AM,44.6,42.8,93,30.35,10.0,Calm,Calm,-,N/A,,Clear,0,2012-11-10 13:35:00
8:55 AM,50.0,44.6,82,30.36,10.0,East,3.5,-,N/A,,Clear,80,2012-11-10 13:55:00
9:15 AM,53.6,46.4,77,30.36,10.0,Calm,Calm,-,N/A,,Clear,0,2012-11-10 14:15:00
9:35 AM,57.2,46.4,67,30.36,10.0,Calm,Calm,-,N/A,,Clear,0,2012-11-10 14:35:00
9:55 AM,60.8,46.4,59,30.36,10.0,Calm,Calm,-,N/A,,Clear,0,2012-11-10 14:55:00
10:15 AM,64.4,46.4,52,30.36,10.0,Calm,Calm,-,N/A,,Clear,0,2012-11-10 15:15:00
10:35 AM,68.0,46.4,46,30.36,10.0,Calm,Calm,-,N/A,,Clear,0,2012-11-10 15:35:00
10:55 AM,68.0,44.6,43,30.36,10.0,Calm,Calm,-,N/A,,Clear,0,2012-11-10 15:55:00
11:15 AM,69.8,44.6,40,30.36,10.0,SSW,3.5,-,N/A,,Clear,200,2012-11-10 16:15:00
11:35 AM,69.8,42.8,38,30.35,10.0,Calm,Calm,-,N/A,,Clear,0,2012-11-10 16:35:00
11:55 AM,71.6,42.8,35,30.34,10.0,SE,3.5,-,N/A,,Clear,140,2012-11-10 16:55:00
12:15 PM,71.6,42.8,35,30.33,10.0,South,5.8,-,N/A,,Clear,190,2012-11-10 17:15:00
12:35 PM,73.4,42.8,33,30.32,10.0,SSW,6.9,-,N/A,,Clear,200,2012-11-10 17:35:00
12:55 PM,71.6,41.0,33,30.31,10.0,SSE,5.8,-,N/A,,Clear,160,2012-11-10 17:55:00
1:15 PM,71.6,41.0,33,30.30,10.0,WNW,4.6,-,N/A,,Clear,300,2012-11-10 18:15:00
1:35 PM,73.4,41.0,31,30.30,10.0,Calm,Calm,-,N/A,,Clear,0,2012-11-10 18:35:00
1:55 PM,73.4,41.0,31,30.29,10.0,ESE,3.5,-,N/A,,Clear,120,2012-11-10 18:55:00
2:15 PM,73.4,41.0,31,30.28,10.0,SE,4.6,-,N/A,,Clear,140,2012-11-10 19:15:00
2:35 PM,73.4,41.0,31,30.28,10.0,SSW,3.5,-,N/A,,Clear,210,2012-11-10 19:35:00
2:55 PM,75.2,41.0,29,30.27,10.0,South,4.6,-,N/A,,Clear,180,2012-11-10 19:55:00
3:15 PM,75.2,41.0,29,30.27,10.0,SE,5.8,-,N/A,,Clear,140,2012-11-10 20:15:00
3:35 PM,73.4,39.2,29,30.27,10.0,South,4.6,-,N/A,,Clear,170,2012-11-10 20:35:00
3:55 PM,73.4,37.4,27,30.27,10.0,Calm,Calm,-,N/A,,Clear,0,2012-11-10 20:55:00
4:15 PM,73.4,39.2,29,30.27,10.0,Calm,Calm,-,N/A,,Clear,0,2012-11-10 21:15:00
4:35 PM,73.4,41.0,31,30.27,10.0,Calm,Calm,-,N/A,,Clear,0,2012-11-10 21:35:00
4:55 PM,71.6,44.6,38,30.27,10.0,Calm,Calm,-,N/A,,Clear,0,2012-11-10 21:55:00
5:15 PM,68.0,44.6,43,30.28,10.0,Calm,Calm,-,N/A,,Clear,0,2012-11-10 22:15:00
5:35 PM,64.4,46.4,52,30.28,10.0,Calm,Calm,-,N/A,,Clear,0,2012-11-10 22:35:00
5:55 PM,60.8,48.2,63,30.28,10.0,Calm,Calm,-,N/A,,Clear,0,2012-11-10 22:55:00
6:15 PM,55.4,46.4,72,30.28,10.0,Calm,Calm,-,N/A,,Clear,0,2012-11-10 23:15:00
6:35 PM,55.4,44.6,67,30.29,10.0,Calm,Calm,-,N/A,,Clear,0,2012-11-10 23:35:00
6:55 PM,53.6,46.4,77,30.30,10.0,Calm,Calm,-,N/A,,Clear,0,2012-11-10 23:55:00
7:15 PM,51.8,44.6,76,30.30,10.0,Calm,Calm,-,N/A,,Clear,0,2012-11-11 00:15:00
7:35 PM,50.0,44.6,82,30.30,10.0,Calm,Calm,-,N/A,,Clear,0,2012-11-11 00:35:00
7:55 PM,50.0,44.6,82,30.30,10.0,Calm,Calm,-,N/A,,Clear,0,2012-11-11 00:55:00
8:15 PM,48.2,44.6,87,30.31,10.0,Calm,Calm,-,N/A,,Clear,0,2012-11-11 01:15:00
8:35 PM,46.4,44.6,93,30.31,10.0,Calm,Calm,-,N/A,,Clear,0,2012-11-11 01:35:00
8:55 PM,46.4,44.6,93,30.32,7.0,Calm,Calm,-,N/A,,Clear,0,2012-11-11 01:55:00
9:15 PM,46.4,44.6,93,30.32,10.0,Calm,Calm,-,N/A,,Clear,0,2012-11-11 02:15:00
9:35 PM,44.6,42.8,93,30.33,10.0,Calm,Calm,-,N/A,,Clear,0,2012-11-11 02:35:00
9:55 PM,44.6,42.8,93,30.33,10.0,Calm,Calm,-,N/A,,Clear,0,2012-11-11 02:55:00
10:15 PM,44.6,42.8,93,30.33,10.0,Calm,Calm,-,N/A,,Clear,0,2012-11-11 03:15:00
10:35 PM,44.6,42.8,93,30.33,10.0,Calm,Calm,-,N/A,,Clear,0,2012-11-11 03:35:00
11:15 PM,42.8,41.0,93,30.33,10.0,Calm,Calm,-,N/A,,Clear,0,2012-11-11 04:15:00
11:35 PM,42.8,41.0,93,30.33,10.0,Calm,Calm,-,N/A,,Clear,0,2012-11-11 04:35:00
11:55 PM,42.8,41.0,93,30.32,10.0,Calm,Calm,-,N/A,,Clear,0,2012-11-11 04:55:00